Starlink 35155

operational
NORAD ID: 65935 Int'l Des: 2025-225 Owner: SPXS Country: US Constellation: starlink
LEOCIRCULAR

About Starlink 35155

Description loading...

Live Position

Loading 3D Globe...

Upcoming Passes

Altitude History

Altitude vs Time

uPlot chart will show altitude changes over time

Two-Line Element Set

1 65935U 25225AB 26061.09816706 .00022981 00000-0 78545-3 0 9990
2 65935 53.1597 201.0907 0001175 86.7593 273.3542 15.30207033 22353
Epoch: Mar 2, 2026 • Age: 30 hours

Current Status

Altitude 480.8 km
Velocity 7.63 km/s
Sub-Earth Point -19.70°S, 77.82°W
Launch Date Oct 8, 2025
Age 0.3 years
Type internet

Technical Details

Classification Payload
Mass 575.00 kg
Dry Mass 530.00 kg
Total Mass 575.00 kg
Length 0.30 m
Diameter 4.10 m
Span 29.00 m
Shape Box + pan
Manufacturer SPXS
Bus Type Starlink V2MO
Phase Status In Orbit
Owner/State SPXS/US

Large Constellations

Loading constellations...